KF6ILA Weather Reports


Display with metric or nautical units.
time (UTC)temp
F
wind
direction
speed
MPH
gust
MPH
rain 1hr
in
rain 24hr
in
rain mn
in
humidity
%
barometer
mb
20260903143117 61 246 13.0 22.0 0.00 0.00 0.00 21 1014.3
20260903142620 61 251 13.0 22.0 0.00 0.00 0.00 23 1014.1
20260903142123 61 248 15.0 23.0 0.00 0.00 0.00 21 1014.1
20260903141628 61 250 15.0 23.0 0.00 0.00 0.00 20 1014.0
20260903141129 61 250 16.0 23.0 0.00 0.00 0.00 18 1014.0
20260903140632 61 254 15.0 23.0 0.00 0.00 0.00 17 1013.9
20260903140135 61 252 16.0 23.0 0.00 0.00 0.00 18 1013.8
20260903135638 60 256 13.0 21.0 0.00 0.00 0.00 18 1013.7
20260903135141 60 263 15.0 21.0 0.00 0.00 0.00 18 1013.6
20260903134644 60 263 14.0 22.0 0.00 0.00 0.00 17 1013.5
20260903133650 60 259 16.0 23.0 0.00 0.00 0.00 17 1013.6
20260903132657 60 257 16.0 24.0 0.00 0.00 0.00 16 1013.6
20260903132159 60 259 16.0 24.0 0.00 0.00 0.00 16 1013.6
20260903131702 60 262 15.0 24.0 0.00 0.00 0.00 17 1013.5
20260903130708 60 261 15.0 20.0 0.00 0.00 0.00 17 1013.5
20260903130211 59 257 15.0 20.0 0.00 0.00 0.00 17 1013.5
20260903125714 59 255 14.0 23.0 0.00 0.00 0.00 16 1013.5
20260903125217 59 253 16.0 23.0 0.00 0.00 0.00 14 1013.5
20260903124720 60 254 16.0 22.0 0.00 0.00 0.00 14 1013.6
20260903124224 60 254 15.0 25.0 0.00 0.00 0.00 15 1013.6
20260903123726 60 256 17.0 25.0 0.00 0.00 0.00 15 1013.4
20260903123229 60 262 14.0 22.0 0.00 0.00 0.00 14 1013.3
20260903122732 59 258 15.0 22.0 0.00 0.00 0.00 13 1013.4
20260903122235 59 255 13.0 22.0 0.00 0.00 0.00 12 1013.3
20260903121738 60 253 14.0 22.0 0.00 0.00 0.00 12 1013.4
20260903121241 60 257 15.0 23.0 0.00 0.00 0.00 13 1013.4
20260903120744 60 257 16.0 23.0 0.00 0.00 0.00 14 1013.3
20260903120247 59 255 16.0 23.0 0.00 0.00 0.00 15 1013.4
20260903115750 59 259 14.0 22.0 0.00 0.00 0.00 13 1013.3
20260903115253 59 259 15.0 22.0 0.00 0.00 0.00 13 1013.5
20260903114756 59 255 13.0 22.0 0.00 0.00 0.00 12 1013.6
20260903114259 59 255 14.0 22.0 0.00 0.00 0.00 11 1013.6
20260903113803 59 250 15.0 22.0 0.00 0.00 0.00 11 1013.6
20260903113305 59 248 15.0 22.0 0.00 0.00 0.00 10 1013.6
20260903112809 59 249 16.0 24.0 0.00 0.00 0.00 10 1013.6
20260903112311 59 246 15.0 24.0 0.00 0.00 0.00 11 1013.6
20260903111814 59 246 15.0 24.0 0.00 0.00 0.00 10 1013.6
20260903111317 59 250 15.0 24.0 0.00 0.00 0.00 10 1013.6
20260903110820 59 248 17.0 23.0 0.00 0.00 0.00 10 1013.7
20260903110323 59 246 18.0 23.0 0.00 0.00 0.00 10 1013.8
20260903105826 59 245 18.0 23.0 0.00 0.00 0.00 10 1013.8
20260903105329 59 244 18.0 24.0 0.00 0.00 0.00 10 1013.9
20260903104832 59 245 17.0 24.0 0.00 0.00 0.00 10 1013.7
20260903104335 59 245 19.0 24.0 0.00 0.00 0.00 10 1013.9
20260903103838 59 246 17.0 23.0 0.00 0.00 0.00 10 1013.9
20260903103341 59 246 17.0 22.0 0.00 0.00 0.00 10 1013.9
20260903102844 59 247 17.0 24.0 0.00 0.00 0.00 10 1013.9
20260903102347 59 247 17.0 24.0 0.00 0.00 0.00 10 1013.8
20260903101850 59 249 17.0 22.0 0.00 0.00 0.00 10 1013.9
20260903101353 59 248 16.0 22.0 0.00 0.00 0.00 10 1014.0
20260903100856 59 253 15.0 24.0 0.00 0.00 0.00 10 1014.1
20260903100359 60 251 17.0 24.0 0.00 0.00 0.00 10 1014.0
20260903095902 60 252 16.0 25.0 0.00 0.00 0.00 10 1014.0
20260903095405 60 256 19.0 25.0 0.00 0.00 0.00 10 1013.9
20260903094908 60 249 17.0 26.0 0.00 0.00 0.00 10 1014.0
20260903094411 60 258 18.0 27.0 0.00 0.00 0.00 10 1014.0
20260903093915 60 255 19.0 27.0 0.00 0.00 0.00 10 1013.9
20260903093417 60 260 20.0 28.0 0.00 0.00 0.00 10 1013.9
20260903092920 60 258 20.0 28.0 0.00 0.00 0.00 10 1014.0
20260903092423 60 255 20.0 28.0 0.00 0.00 0.00 10 1013.9
20260903091927 61 258 19.0 28.0 0.00 0.00 0.00 10 1013.8
20260903091429 61 256 19.0 28.0 0.00 0.00 0.00 10 1013.6
20260903090933 61 259 20.0 29.0 0.00 0.00 0.00 10 1013.6
20260903090435 61 257 21.0 29.0 0.00 0.00 0.00 10 1013.6
20260903085939 61 257 22.0 32.0 0.00 0.00 0.00 11 1013.6
20260903085442 61 259 22.0 32.0 0.00 0.00 0.00 11 1013.6
20260903084944 61 258 22.0 31.0 0.00 0.00 0.00 12 1014.5
20260903084447 61 260 21.0 32.0 0.00 0.00 0.00 12 1014.5
20260903083951 61 251 21.0 32.0 0.00 0.00 0.00 12 1014.5
20260903083454 61 255 23.0 32.0 0.00 0.00 0.00 13 1014.8
20260903082957 61 253 23.0 32.0 0.00 0.00 0.00 14 1014.7
20260903082459 60 255 24.0 31.0 0.00 0.00 0.00 15 1014.9
20260903082002 60 255 24.0 31.0 0.00 0.00 0.00 16 1014.9
20260903081009 60 256 20.0 29.0 0.00 0.00 0.00 19 1014.9
20260903080512 59 255 21.0 29.0 0.00 0.00 0.00 20 1015.0
20260903080014 59 253 23.0 31.0 0.00 0.00 0.00 24 1015.1
20260903075517 59 247 21.0 31.0 0.00 0.00 0.00 29 1015.2
20260903075021 58 243 21.0 27.0 0.00 0.00 0.00 34 1015.2
20260903074523 58 244 20.0 27.0 0.00 0.00 0.00 38 1015.2
20260903074027 58 244 21.0 27.0 0.00 0.00 0.00 41 1015.3
20260903073529 58 247 20.0 24.0 0.00 0.00 0.00 47 1015.3
20260903073032 57 253 18.0 24.0 0.00 0.00 0.00 49 1015.4
20260903072536 57 245 17.0 24.0 0.00 0.00 0.00 49 1015.4
20260903072039 57 249 18.0 24.0 0.00 0.00 0.00 51 1015.5
20260903071541 57 247 17.0 22.0 0.00 0.00 0.00 53 1015.5
20260903071045 58 250 13.0 22.0 0.00 0.00 0.00 51 1015.5
20260903070547 58 251 14.0 22.0 0.00 0.00 0.00 48 1015.5
20260903070050 59 257 14.0 22.0 0.00 0.00 0.00 44 1015.5
20260903065553 59 262 15.0 22.0 0.00 0.00 0.00 40 1015.6
20260903065057 59 265 14.0 21.0 0.00 0.00 0.00 37 1015.6
20260903064600 60 261 13.0 22.0 0.00 0.00 0.00 34 1015.6
20260903064103 60 264 15.0 22.0 0.00 0.00 0.00 33 1015.5
20260903063605 60 268 13.0 24.0 0.00 0.00 0.00 34 1015.5
20260903063108 61 267 16.0 24.0 0.00 0.00 0.00 30 1015.5
20260903062611 61 259 17.0 24.0 0.00 0.00 0.00 30 1015.5
20260903062114 61 260 18.0 26.0 0.00 0.00 0.00 28 1015.4
20260903061617 61 263 16.0 26.0 0.00 0.00 0.00 29 1015.3
20260903061121 61 261 16.0 24.0 0.00 0.00 0.00 28 1015.3
20260903060624 61 267 16.0 24.0 0.00 0.00 0.00 29 1015.4
20260903060127 61 269 15.0 24.0 0.00 0.00 0.00 30 1015.5
20260903055630 61 264 16.0 24.0 0.00 0.00 0.00 30 1015.4
20260903055133 61 266 16.0 24.0 0.00 0.00 0.00 30 1015.4
20260903054636 61 262 19.0 26.0 0.00 0.00 0.00 28 1015.4
20260903054139 62 262 16.0 27.0 0.00 0.00 0.00 28 1015.5
20260903053641 62 260 18.0 29.0 0.00 0.00 0.00 27 1015.6
20260903053145 62 261 17.0 29.0 0.00 0.00 0.00 27 1015.5
20260903052648 62 253 21.0 27.0 0.00 0.00 0.00 27 1015.5
20260903052151 62 259 19.0 27.0 0.00 0.00 0.00 26 1015.5
20260903051157 63 257 18.0 28.0 0.00 0.00 0.00 23 1015.4
20260903050700 63 256 20.0 28.0 0.00 0.00 0.00 22 1015.5
20260903045706 63 258 22.0 28.0 0.00 0.00 0.00 21 1015.4
20260903045209 63 258 20.0 28.0 0.00 0.00 0.00 21 1015.5
20260903044712 62 251 18.0 28.0 0.00 0.00 0.00 22 1015.5
20260903044215 62 252 19.0 27.0 0.00 0.00 0.00 24 1015.4
20260903043718 62 245 21.0 27.0 0.00 0.00 0.00 25 1015.5
20260903043221 62 252 20.0 29.0 0.00 0.00 0.00 25 1015.4
20260903041730 62 250 17.0 26.0 0.00 0.00 0.00 30 1015.4
20260903034748 60 247 19.0 25.0 0.00 0.00 0.00 51 1015.1
20260903034251 60 251 19.0 24.0 0.00 0.00 0.00 56 1015.1
20260903033754 59 249 17.0 24.0 0.00 0.00 0.00 61 1015.1
20260903033257 58 249 17.0 24.0 0.00 0.00 0.00 66 1015.0
20260903032800 58 250 15.0 21.0 0.00 0.00 0.00 73 1014.8
20260903032305 58 251 15.0 21.0 0.00 0.00 0.00 75 1014.9
20260903031806 58 256 15.0 21.0 0.00 0.00 0.00 75 1014.9
20260903031309 58 257 15.0 21.0 0.00 0.00 0.00 75 1014.8
20260903030812 58 259 16.0 21.0 0.00 0.00 0.00 75 1014.7
20260903030315 59 261 14.0 20.0 0.00 0.00 0.00 74 1014.8
20260903025819 59 261 16.0 22.0 0.00 0.00 0.00 73 1014.7
20260903025321 59 261 15.0 23.0 0.00 0.00 0.00 72 1014.7
20260903024824 60 262 16.0 23.0 0.00 0.00 0.00 72 1015.5
20260903024327 60 259 17.0 23.0 0.00 0.00 0.00 71 1015.5
20260903023830 60 269 17.0 22.0 0.00 0.00 0.00 70 1015.5
20260903023333 61 260 17.0 21.0 0.00 0.00 0.00 69 1015.4
20260903022836 61 260 16.0 24.0 0.00 0.00 0.00 67 1015.4
20260903022339 62 268 16.0 24.0 0.00 0.00 0.00 66 1015.4
20260903021842 62 270 18.0 24.0 0.00 0.00 0.00 65 1015.3
20260903021345 62 272 14.0 23.0 0.00 0.00 0.00 64 1015.4
20260903020848 63 263 16.0 23.0 0.00 0.00 0.00 63 1015.3
20260903015854 64 272 18.0 24.0 0.00 0.00 0.00 60 1015.3
20260903015357 64 266 18.0 25.0 0.00 0.00 0.00 58 1015.4
20260903014900 65 267 20.0 25.0 0.00 0.00 0.00 56 1015.4
20260903014403 65 266 18.0 24.0 0.00 0.00 0.00 55 1015.4
20260903013409 66 267 20.0 27.0 0.00 0.00 0.00 53 1014.5
20260903012912 67 261 17.0 26.0 0.00 0.00 0.00 51 1014.6
20260903011421 68 261 17.0 25.0 0.00 0.00 0.00 48 1014.7
20260903010924 69 257 17.0 24.0 0.00 0.00 0.00 48 1014.8
20260903010427 69 256 15.0 27.0 0.00 0.00 0.00 47 1014.9
20260903005930 69 259 20.0 27.0 0.00 0.00 0.00 45 1014.9
20260903005433 70 258 16.0 24.0 0.00 0.00 0.00 44 1014.7
20260903004439 70 260 16.0 24.0 0.00 0.00 0.00 41 1014.9
20260903003942 71 247 15.0 24.0 0.00 0.00 0.00 39 1015.0
20260903002948 71 248 14.0 24.0 0.00 0.00 0.00 38 1015.1
20260903001954 72 247 12.0 23.0 0.00 0.00 0.00 37 1015.1
20260903001457 72 267 15.0 24.0 0.00 0.00 0.00 38 1015.3
20260902235509 74 264 14.0 23.0 0.00 0.00 0.00 36 1015.1
20260902235012 73 261 13.0 23.0 0.00 0.00 0.00 35 1015.2
20260902234515 73 263 14.0 25.0 0.00 0.00 0.00 36 1015.2
20260902234018 74 263 19.0 25.0 0.00 0.00 0.00 35 1015.1
20260902233521 74 255 14.0 25.0 0.00 0.00 0.00 35 1015.2
20260902232527 75 265 16.0 26.0 0.00 0.00 0.00 36 1015.6
20260902231036 75 259 17.0 25.0 0.00 0.00 0.00 33 1015.4
20260902230539 75 249 15.0 25.0 0.00 0.00 0.00 34 1015.7
20260902230042 76 237 14.0 24.0 0.00 0.00 0.00 32 1015.7
20260902225048 76 247 14.0 26.0 0.00 0.00 0.00 32 1015.9
20260902224551 76 256 15.0 26.0 0.00 0.00 0.00 30 1015.7
20260902224054 76 256 16.0 26.0 0.00 0.00 0.00 30 1016.0
20260902223557 76 248 17.0 29.0 0.00 0.00 0.00 27 1016.0
20260902223100 77 265 21.0 29.0 0.00 0.00 0.00 26 1015.7
20260902222603 77 254 12.0 27.0 0.00 0.00 0.00 27 1016.1
20260902222106 77 254 13.0 30.0 0.00 0.00 0.00 24 1015.9
20260902221609 77 242 17.0 30.0 0.00 0.00 0.00 26 1016.1
20260902221112 77 251 13.0 29.0 0.00 0.00 0.00 24 1016.3
20260902220615 78 246 18.0 29.0 0.00 0.00 0.00 22 1016.2
20260902220118 78 249 15.0 26.0 0.00 0.00 0.00 23 1016.4
20260902215621 79 256 14.0 21.0 0.00 0.00 0.00 21 1016.3
20260902215124 78 259 14.0 25.0 0.00 0.00 0.00 20 1016.3
20260902214627 78 229 15.0 25.0 0.00 0.00 0.00 19 1016.4
20260902214130 78 259 11.0 25.0 0.00 0.00 0.00 21 1016.2
20260902213633 78 237 14.0 25.0 0.00 0.00 0.00 19 1016.6
20260902213136 78 241 10.0 26.0 0.00 0.00 0.00 19 1016.5
20260902212639 77 232 13.0 27.0 0.00 0.00 0.00 19 1016.5
20260902211148 76 257 19.0 27.0 0.00 0.00 0.00 19 1016.5
20260902210651 76 265 15.0 29.0 0.00 0.00 0.00 19 1016.5
20260902205657 76 272 17.0 27.0 0.00 0.00 0.00 18 1016.7
20260902202715 76 271 17.0 29.0 0.00 0.00 0.00 19 1016.7
20260902201722 75 263 17.0 30.0 0.00 0.00 0.00 20 1016.8
20260902201224 75 257 17.0 30.0 0.00 0.00 0.00 21 1017.1
20260902200727 76 274 21.0 30.0 0.00 0.00 0.00 20 1016.7
20260902200230 76 254 14.0 29.0 0.00 0.00 0.00 20 1017.1
20260902195734 75 252 14.0 29.0 0.00 0.00 0.00 20 1017.0
20260902195236 75 277 17.0 27.0 0.00 0.00 0.00 20 1016.9
20260902194242 76 262 15.0 25.0 0.00 0.00 0.00 21 1017.0
20260902193745 75 265 14.0 26.0 0.00 0.00 0.00 21 1017.2
20260902193248 75 263 17.0 26.0 0.00 0.00 0.00 21 1017.2
20260902192752 76 259 15.0 26.0 0.00 0.00 0.00 20 1017.1
20260902192254 75 260 11.0 30.0 0.00 0.00 0.00 21 1017.2
20260902191301 74 270 17.0 27.0 0.00 0.00 0.00 20 1017.3
20260902190804 74 267 15.0 28.0 0.00 0.00 0.00 20 1017.3
20260902184816 74 271 16.0 26.0 0.00 0.00 0.00 20 1017.2
20260902184319 74 280 14.0 26.0 0.00 0.00 0.00 20 1017.3
20260902183324 74 268 17.0 26.0 0.00 0.00 0.00 20 1017.4
20260902182828 75 255 16.0 25.0 0.00 0.00 0.00 20 1017.4
20260902182331 74 263 12.0 26.0 0.00 0.00 0.00 21 1017.4
20260902181833 73 272 18.0 27.0 0.00 0.00 0.00 21 1017.2
20260902180839 72 263 16.0 28.0 0.00 0.00 0.00 22 1017.3
20260902180342 72 262 16.0 27.0 0.00 0.00 0.00 22 1017.3
20260902175348 72 275 18.0 29.0 0.00 0.00 0.00 22 1017.2
20260902174852 72 264 16.0 29.0 0.00 0.00 0.00 22 1017.2
20260902174354 71 265 18.0 27.0 0.00 0.00 0.00 21 1017.2
20260902173858 71 271 21.0 27.0 0.00 0.00 0.00 21 1017.1
20260902173400 71 263 18.0 27.0 0.00 0.00 0.00 21 1017.2
20260902172903 71 269 19.0 29.0 0.00 0.00 0.00 21 1017.0
20260902172406 71 269 20.0 29.0 0.00 0.00 0.00 20 1017.1
20260902170916 70 272 18.0 29.0 0.00 0.00 0.00 41 1016.8
20260902170418 70 272 17.0 29.0 0.00 0.00 0.00 21 1016.9
20260902165424 70 265 20.0 29.0 0.00 0.00 0.00 21 1017.0
20260902164928 69 273 18.0 34.0 0.00 0.00 0.00 22 1016.8
20260902164430 69 270 20.0 34.0 0.00 0.00 0.00 22 1016.7
20260902162940 69 266 19.0 27.0 0.00 0.00 0.00 22 1016.8
20260902161946 68 264 18.0 26.0 0.00 0.00 0.00 22 1016.8
20260902161448 68 266 16.0 26.0 0.00 0.00 0.00 23 1016.8
20260902160952 68 272 17.0 24.0 0.00 0.00 0.00 23 1016.6
20260902160454 68 271 15.0 23.0 0.00 0.00 0.00 23 1016.7
20260902155958 68 270 15.0 22.0 0.00 0.00 0.00 23 1016.7
20260902155501 68 262 13.0 22.0 0.00 0.00 0.00 23 1016.6
20260902153513 66 260 15.0 24.0 0.00 0.00 0.00 24 1016.6
20260902153016 66 257 17.0 24.0 0.00 0.00 0.00 24 1016.4
20260902152022 65 255 16.0 26.0 0.00 0.00 0.00 24 1016.2
20260902151525 65 256 15.0 26.0 0.00 0.00 0.00 24 1016.3
20260902151028 65 260 16.0 26.0 0.00 0.00 0.00 25 1016.2
20260902150531 65 257 15.0 23.0 0.00 0.00 0.00 25 1016.1
20260902150034 64 254 16.0 24.0 0.00 0.00 0.00 25 1016.2
20260902145537 64 260 16.0 24.0 0.00 0.00 0.00 25 1016.1
20260902145040 64 255 15.0 23.0 0.00 0.00 0.00 26 1016.2
20260902144543 63 257 16.0 23.0 0.00 0.00 0.00 25 1016.2